Погода в Старой Гые

Россия / Удмуртская Республика     58°07′40″N   53°32′32″E
темп.,
°C
ветер,
м/с
пор.,
м/с
влажн.,
%
обл.,
%
осадки,
мм/ч
давл.,
гПа
погр.,
м
28 января, чт
чт2801:00−7ююз51491100 0.1 1019607
04:00−7ююз61492100 0.1 1017604
07:00−6ююз61393100 0.1 1017649
10:00−6ююз51292100 0.3 1016618
13:00−5юз51094100 1.0 1017537
16:00−5ююз4995100 1.9 1017513
19:00−5ююз3893100 0.4 1018445
22:00−7ю2797100 0.4 1018285
29 января, пт
пт2901:00−8ю3797100 0.0 1018247
04:00−9ююв2597100 0.1 1018175
07:00−11юв259695 0.0 1017114
10:00−10юв389397 0.0 1017236
13:00−7юв3792100 0.0 1016302
16:00−7юв3993100 0.0 1014392
19:00−6ююв41093100 0.1 1013480
22:00−6юв3996100 0.1 1012356
30 января, сб
сб3001:00−6юв41092100 0.0 1010365
04:00−5юв41095100 0.4 1008645
07:00−6ююв4995100 0.8 1007570
10:00−6ю41094100 1.9 1007576
13:00−4ю4794100 0.1 1007433
16:00−4ююв489799 0.2 1007475
19:00−4ююв51394100 0.3 1006665
22:00−4ю61394100 1.2 1005827
31 января, вс
вс3101:00−3ююз61293100 0.6 10051052
04:00−6ююз4119498 0.7 1008490
07:00−9ююз41096100 0.0 1009300
10:00−9ю31095100 0.1 1011274
13:00−5ю4108995 0.0 1011441
16:00−3ююв6129598 0.4 1009739
19:00−2ю61395100 0.9 10071009
22:00−1ю81794100 2.2 10051256
1 февраля, пн
пн101:00−2ю81894100 0.9 10031206
04:00−4ю71594100 3.6 10001148
07:00−3ю61490100 1.3 999998
10:00−4юз71393100 2.1 1000959
13:00−4юз71493100 0.6 1005924
16:00−5зюз71391100 1.0 1009876
19:00−7зюз61292100 0.2 1013624
22:00−8юз41094100 0.3 1016443